FALCON HEAVY R/B, 44345

Orbit data source: Space-Track

FALCON HEAVY R/B, 44345 is space debris originally from a launch on Tue, 25 Jun 2019 UTC launched from the Air Force Eastern Test Range (AFETR). Debris objects in space refer to the collection of defunct objects orbiting the Earth. Examples of debris include non-operational satellites, rocket bodies, and fragments generated from explosions, collisions, or faulty payload assembly.

Loading next visibility...
FALCON HEAVY R/B details
Identifier
44345, 2019-036G
Orbit
Active
Last TLE update1 day ago
Origin
Flag of USSpaceX (US)
ManufacturerSpaceX
MissionSpacecraft
Bus & MotorF9ST2, Unknown motor
Mass~4,000 kg wet, ~4,000 kg dry
Launch date (UTC)
2019-06-25 (6 years ago)
Launch vehicleUnknown
Launch site
Air Force Eastern Test Range (AFETR)
Object type
Payload
Rocket body
Debris
Shape & HBRCyl, Unknown HBR
Radar Cross Section49.816 m², Large (>1 m²)

Expand to show TLE details & history

TLE from 1 day ago
0 FALCON HEAVY R/B
1 44345U 19036G   24360.63257354 -.00000005  00000-0  00000-0 0  9995
2 44345  42.2288 117.0785 2153538 229.4132 109.8124  4.69269787 94362
Epoch: 2024-12-25T15:10Z
Definitive object data (Epoch: 2024-12-25T15:10:54.353Z)
Latitude0.00001°
Longitude154.72036°
Altitude10,337.691 km
Speed4.609 km/s
True Right ascension07h 48m 16s
True Declination0° 00' 00"
Sunlit
Object was in daylight at TLE epoch
Visualization TLE readout
Latitude-23.15064°
Longitude2.31821°
Altitude5,518.841 km
Speed6.37 km/s
Apparent Right ascension23h 00m 30s
Apparent Declination-33° 15' 49"
Sunlit
Object is in daylight
Visualization observer readout
Local Sidereal Time14:25:50
Azimuth97.457° ESE
Elevation-48.821°
Doppler factor1
Orbital elements
Apogee altitude11,938.775 km
Perigee altitude5,447.469 km
Semi-major axis15,071.259 km
Eccentricity0.2153538
Inclination42.2288°
RAAN117.0785°
Arg. of periapsis229.4132°
True anomaly130.62275°
Mean anomaly109.8124°
Eccentric anomaly120.44945°
Mean motion1.17306 °/min
BSTARUnknown
Orbital period306.89 mins
Loading maneuver chart data...
Loading historical data...
Loading historical data...
Loading historical data...
Loading historical data...
Loading historical data...
Loading historical data...
Loading historical data...

FALCON HEAVY R/B Visibility forecast

Observer location: undefined°, undefined

Span
Click to sort rows by Start time (UTC) header in descending order
Start Az.
Max El. time (UTC)
Max El. Az.
Max El.
End time (UTC)
End Az.
102 mins2024-12-26 18:13:53.324Z298.468° NW2024-12-26 19:20:53.324Z234.468° WSW39.569°2024-12-26 19:55:53.324Z161.266° S
143 mins2024-12-27 07:43:53.324Z188.119° SSW2024-12-27 08:51:53.324Z119.25° SE38.78°2024-12-27 10:06:53.324Z61.03° ENE
85 mins2024-12-27 13:38:53.324Z264.362° W2024-12-27 15:03:53.324Z292.91° NW44.505°2024-12-27 15:03:53.324Z292.91° NW
|